Time,TemperatureF,DewpointF,PressureIn,WindDirection,WindDirectionDegrees,WindSpeedMPH,WindSpeedGustMPH,Humidity,HourlyPrecipIn,Conditions,Clouds,dailyrainin,SoftwareType,DateUTC
2013-04-30 00:01:00,54.1,32.1,30.25,SSW,201,0.0,0.0,43,0.00,OVC,,0.00,WeatherDisplay:10.37,2013-04-30 04:01:00,
2013-04-30 00:06:00,54.2,32.2,30.25,SSW,201,0.0,0.0,43,0.00,OVC,,0.00,WeatherDisplay:10.37,2013-04-30 04:06:00,
2013-04-30 00:11:00,54.2,31.6,30.25,SSW,201,0.0,0.0,42,0.00,OVC,,0.00,WeatherDisplay:10.37,2013-04-30 04:11:00,
2013-04-30 00:16:00,54.2,32.2,30.25,SSW,201,0.0,0.0,43,0.00,OVC,,0.00,WeatherDisplay:10.37,2013-04-30 04:16:00,
2013-04-30 00:21:00,54.1,33.2,30.25,SSW,201,0.0,0.0,45,0.00,OVC,,0.00,WeatherDisplay:10.37,2013-04-30 04:21:00,
2013-04-30 00:26:00,53.9,32.5,30.25,SSW,201,0.0,0.0,44,0.00,OVC,,0.00,WeatherDisplay:10.37,2013-04-30 04:26:00,
2013-04-30 00:31:00,53.7,32.3,30.25,SSW,201,0.0,0.0,44,0.00,OVC,,0.00,WeatherDisplay:10.37,2013-04-30 04:31:00,
2013-04-30 00:36:00,53.6,32.8,30.25,SSW,201,0.0,0.0,45,0.00,OVC,,0.00,WeatherDisplay:10.37,2013-04-30 04:36:00,
2013-04-30 00:41:00,53.5,32.7,30.25,SSW,201,0.0,0.0,45,0.00,OVC,,0.00,WeatherDisplay:10.37,2013-04-30 04:41:00,
2013-04-30 00:46:00,53.5,33.2,30.25,SSW,201,0.0,0.0,46,0.00,OVC,,0.00,WeatherDisplay:10.37,2013-04-30 04:46:00,
2013-04-30 00:51:00,53.4,32.6,30.25,SSW,201,0.0,0.0,45,0.00,OVC,,0.00,WeatherDisplay:10.37,2013-04-30 04:51:00,
2013-04-30 00:56:00,53.3,33.0,30.25,SSW,201,0.0,0.0,46,0.00,OVC,,0.00,WeatherDisplay:10.37,2013-04-30 04:56:00,
2013-04-30 01:01:00,53.3,33.0,30.25,SSW,201,0.0,0.0,46,0.00,OVC,,0.00,WeatherDisplay:10.37,2013-04-30 05:01:00,
2013-04-30 01:06:00,53.2,34.0,30.25,SSW,201,0.0,0.0,48,0.00,OVC,,0.00,WeatherDisplay:10.37,2013-04-30 05:06:00,
2013-04-30 01:11:00,53.2,35.0,30.25,SSW,201,0.0,0.0,50,0.00,OVC,,0.00,WeatherDisplay:10.37,2013-04-30 05:11:00,
2013-04-30 01:16:00,53.1,36.4,30.25,SSW,201,0.0,0.0,53,0.00,OVC,,0.00,WeatherDisplay:10.37,2013-04-30 05:16:00,
2013-04-30 01:21:00,52.9,36.2,30.25,SSW,201,0.0,0.0,53,0.00,OVC,,0.00,WeatherDisplay:10.37,2013-04-30 05:21:00,
2013-04-30 01:26:00,52.7,35.6,30.25,SSW,201,0.0,0.0,52,0.00,OVC,,0.00,WeatherDisplay:10.37,2013-04-30 05:26:00,
2013-04-30 01:31:00,52.6,35.9,30.25,SSW,201,0.0,0.0,53,0.00,OVC,,0.00,WeatherDisplay:10.37,2013-04-30 05:31:00,
2013-04-30 01:36:00,52.5,35.8,30.25,SSW,201,0.0,0.0,53,0.00,OVC,,0.00,WeatherDisplay:10.37,2013-04-30 05:36:00,
2013-04-30 01:41:00,52.4,35.3,30.25,SSW,201,0.0,0.0,52,0.00,OVC,,0.00,WeatherDisplay:10.37,2013-04-30 05:41:00,
2013-04-30 01:46:00,52.4,35.3,30.25,SSW,201,0.0,0.0,52,0.00,OVC,,0.00,WeatherDisplay:10.37,2013-04-30 05:46:00,
2013-04-30 01:51:00,52.3,35.2,30.25,SSW,201,0.0,0.0,52,0.00,OVC,,0.00,WeatherDisplay:10.37,2013-04-30 05:51:00,
2013-04-30 01:56:00,52.3,35.2,30.25,SSW,201,0.0,0.0,52,0.00,OVC,,0.00,WeatherDisplay:10.37,2013-04-30 05:56:00,
2013-04-30 02:01:00,52.3,35.7,30.25,SSW,201,0.0,0.0,53,0.00,BKN,,0.00,WeatherDisplay:10.37,2013-04-30 06:01:00,
2013-04-30 02:06:00,52.2,35.6,30.25,SSW,201,0.0,0.0,53,0.00,BKN,,0.00,WeatherDisplay:10.37,2013-04-30 06:06:00,
2013-04-30 02:11:00,52.0,36.3,30.25,SSW,201,0.0,0.0,55,0.00,BKN,,0.00,WeatherDisplay:10.37,2013-04-30 06:11:00,
2013-04-30 02:16:00,51.7,36.0,30.25,SSW,201,0.0,0.0,55,0.00,BKN,,0.00,WeatherDisplay:10.37,2013-04-30 06:16:00,
2013-04-30 02:21:00,51.4,35.8,30.25,SSW,201,0.0,0.0,55,0.00,BKN,,0.00,WeatherDisplay:10.37,2013-04-30 06:21:00,
2013-04-30 02:26:00,50.9,35.3,30.25,SSW,201,0.0,0.0,55,0.00,BKN,,0.00,WeatherDisplay:10.37,2013-04-30 06:26:00,
2013-04-30 02:31:00,50.5,35.4,30.25,SSW,201,0.0,0.0,56,0.00,BKN,,0.00,WeatherDisplay:10.37,2013-04-30 06:31:00,
2013-04-30 02:36:00,50.1,35.0,30.25,SSW,201,0.0,0.0,56,0.00,BKN,,0.00,WeatherDisplay:10.37,2013-04-30 06:36:00,
2013-04-30 02:41:00,49.6,35.0,30.25,SSW,201,0.0,0.0,57,0.00,BKN,,0.00,WeatherDisplay:10.37,2013-04-30 06:41:00,
2013-04-30 02:46:00,49.3,34.7,30.25,SSW,201,0.0,0.0,57,0.00,BKN,,0.00,WeatherDisplay:10.37,2013-04-30 06:46:00,
2013-04-30 02:51:00,48.8,34.7,30.25,SSW,201,0.0,0.0,58,0.00,BKN,,0.00,WeatherDisplay:10.37,2013-04-30 06:51:00,
2013-04-30 02:56:00,48.4,34.7,30.25,SSW,201,0.0,0.0,59,0.00,BKN,,0.00,WeatherDisplay:10.37,2013-04-30 06:56:00,
2013-04-30 03:01:00,48.0,34.8,30.25,SSW,201,0.0,0.0,60,0.00,CLR,,0.00,WeatherDisplay:10.37,2013-04-30 07:01:00,
2013-04-30 03:06:00,47.7,34.5,30.25,SSW,201,0.0,0.0,60,0.00,CLR,,0.00,WeatherDisplay:10.37,2013-04-30 07:06:00,
2013-04-30 03:11:00,47.4,34.6,30.25,SSW,201,0.0,0.0,61,0.00,CLR,,0.00,WeatherDisplay:10.37,2013-04-30 07:11:00,
2013-04-30 03:16:00,47.2,34.8,30.25,SSW,201,0.0,0.0,62,0.00,CLR,,0.00,WeatherDisplay:10.37,2013-04-30 07:16:00,
2013-04-30 03:21:00,47.0,35.0,30.25,SSW,201,0.0,0.0,63,0.00,CLR,,0.00,WeatherDisplay:10.37,2013-04-30 07:21:00,
2013-04-30 03:26:00,46.7,35.2,30.25,SSW,201,0.0,0.0,64,0.00,CLR,,0.00,WeatherDisplay:10.37,2013-04-30 07:26:00,
2013-04-30 03:31:00,46.5,35.0,30.25,SSW,201,0.0,0.0,64,0.00,CLR,,0.00,WeatherDisplay:10.37,2013-04-30 07:31:00,
2013-04-30 03:36:00,46.2,34.7,30.25,SSW,201,0.0,0.0,64,0.00,CLR,,0.00,WeatherDisplay:10.37,2013-04-30 07:36:00,
2013-04-30 03:41:00,45.9,34.8,30.25,SSW,201,0.0,0.0,65,0.00,CLR,,0.00,WeatherDisplay:10.37,2013-04-30 07:41:00,
2013-04-30 03:46:00,45.7,35.0,30.25,SSW,201,0.0,0.0,66,0.00,CLR,,0.00,WeatherDisplay:10.37,2013-04-30 07:46:00,
2013-04-30 03:51:00,45.5,35.2,30.25,SSW,201,0.0,0.0,67,0.00,CLR,,0.00,WeatherDisplay:10.37,2013-04-30 07:51:00,
2013-04-30 03:56:00,45.4,35.1,30.25,SSW,201,0.0,0.0,67,0.00,CLR,,0.00,WeatherDisplay:10.37,2013-04-30 07:56:00,
2013-04-30 04:01:00,45.2,35.3,30.26,SSW,201,0.0,0.0,68,0.00,CLR,,0.00,WeatherDisplay:10.37,2013-04-30 08:01:00,
2013-04-30 04:06:00,45.0,35.1,30.26,SSW,201,0.0,0.0,68,0.00,CLR,,0.00,WeatherDisplay:10.37,2013-04-30 08:06:00,
2013-04-30 04:11:00,44.7,34.8,30.26,SSW,201,0.0,0.0,68,0.00,CLR,,0.00,WeatherDisplay:10.37,2013-04-30 08:11:00,
2013-04-30 04:16:00,44.7,35.1,30.26,SSW,201,0.0,0.0,69,0.00,CLR,,0.00,WeatherDisplay:10.37,2013-04-30 08:16:00,
2013-04-30 04:21:00,44.7,35.1,30.26,SSW,201,0.0,0.0,69,0.00,CLR,,0.00,WeatherDisplay:10.37,2013-04-30 08:21:00,
2013-04-30 04:26:00,44.6,35.1,30.26,SSW,201,0.0,0.0,69,0.00,CLR,,0.00,WeatherDisplay:10.37,2013-04-30 08:26:00,
2013-04-30 04:31:00,44.3,35.1,30.26,SSW,201,0.0,0.0,70,0.00,CLR,,0.00,WeatherDisplay:10.37,2013-04-30 08:31:00,
2013-04-30 04:36:00,44.2,35.0,30.26,SSW,201,0.0,0.0,70,0.00,CLR,,0.00,WeatherDisplay:10.37,2013-04-30 08:36:00,
2013-04-30 04:41:00,44.0,34.8,30.26,SSW,201,0.0,0.0,70,0.00,CLR,,0.00,WeatherDisplay:10.37,2013-04-30 08:41:00,
2013-04-30 04:46:00,43.8,35.0,30.26,SSW,201,0.0,0.0,71,0.00,CLR,,0.00,WeatherDisplay:10.37,2013-04-30 08:46:00,
2013-04-30 04:51:00,43.7,34.9,30.26,SSW,201,0.0,0.0,71,0.00,CLR,,0.00,WeatherDisplay:10.37,2013-04-30 08:51:00,
2013-04-30 04:56:00,43.7,35.3,30.27,SSW,201,0.0,0.0,72,0.00,CLR,,0.00,WeatherDisplay:10.37,2013-04-30 08:56:00,
2013-04-30 05:01:00,43.6,34.8,30.27,SSW,201,0.0,0.0,71,0.00,CLR,,0.00,WeatherDisplay:10.37,2013-04-30 09:01:00,
2013-04-30 05:06:00,43.5,35.1,30.27,SSW,201,0.0,0.0,72,0.00,CLR,,0.00,WeatherDisplay:10.37,2013-04-30 09:06:00,
2013-04-30 05:11:00,43.6,35.2,30.27,SSW,201,0.0,0.0,72,0.00,CLR,,0.00,WeatherDisplay:10.37,2013-04-30 09:11:00,
2013-04-30 05:16:00,43.6,35.2,30.27,SSW,201,0.0,0.0,72,0.00,CLR,,0.00,WeatherDisplay:10.37,2013-04-30 09:16:00,
2013-04-30 05:21:00,43.5,35.1,30.27,SSW,201,0.0,0.0,72,0.00,CLR,,0.00,WeatherDisplay:10.37,2013-04-30 09:21:00,
2013-04-30 05:26:00,43.4,35.0,30.27,SSW,201,0.0,0.0,72,0.00,CLR,,0.00,WeatherDisplay:10.37,2013-04-30 09:26:00,
2013-04-30 05:31:00,43.4,35.3,30.28,SSW,201,0.0,0.0,73,0.00,CLR,,0.00,WeatherDisplay:10.37,2013-04-30 09:31:00,
2013-04-30 05:36:00,43.3,35.2,30.28,SSW,201,0.0,0.0,73,0.00,CLR,,0.00,WeatherDisplay:10.37,2013-04-30 09:36:00,
2013-04-30 05:41:00,43.3,35.2,30.28,SSW,201,0.0,0.0,73,0.00,CLR,,0.00,WeatherDisplay:10.37,2013-04-30 09:41:00,
2013-04-30 05:46:00,43.3,35.2,30.28,SSW,201,0.0,0.0,73,0.00,CLR,,0.00,WeatherDisplay:10.37,2013-04-30 09:46:00,
2013-04-30 05:51:00,43.3,35.2,30.28,SSW,201,0.0,0.0,73,0.00,CLR,,0.00,WeatherDisplay:10.37,2013-04-30 09:51:00,
2013-04-30 05:56:00,43.3,35.2,30.28,SSW,201,0.0,0.0,73,0.00,CLR,,0.00,WeatherDisplay:10.37,2013-04-30 09:56:00,
2013-04-30 06:01:00,43.3,35.2,30.28,SSW,201,0.0,0.0,73,0.00,CLR,,0.00,WeatherDisplay:10.37,2013-04-30 10:01:00,
2013-04-30 06:06:00,43.3,35.6,30.28,SSW,201,0.0,0.0,74,0.00,CLR,,0.00,WeatherDisplay:10.37,2013-04-30 10:06:00,
2013-04-30 06:11:00,43.3,35.6,30.29,SSW,201,0.0,0.0,74,0.00,CLR,,0.00,WeatherDisplay:10.37,2013-04-30 10:11:00,
2013-04-30 06:16:00,43.4,35.7,30.29,SSW,201,0.0,0.0,74,0.00,CLR,,0.00,WeatherDisplay:10.37,2013-04-30 10:16:00,
2013-04-30 06:21:00,43.5,36.1,30.29,SSW,201,0.0,0.0,75,0.00,CLR,,0.00,WeatherDisplay:10.37,2013-04-30 10:21:00,
2013-04-30 06:26:00,43.6,36.2,30.29,SSW,201,0.0,0.0,75,0.00,CLR,,0.00,WeatherDisplay:10.37,2013-04-30 10:26:00,
2013-04-30 06:31:00,43.8,36.7,30.29,SSW,201,0.0,0.0,76,0.00,CLR,,0.00,WeatherDisplay:10.37,2013-04-30 10:31:00,
2013-04-30 06:36:00,44.2,36.8,30.29,SSW,201,0.0,0.0,75,0.00,CLR,,0.00,WeatherDisplay:10.37,2013-04-30 10:36:00,
2013-04-30 06:41:00,44.6,37.2,30.29,SSW,201,0.0,0.0,75,0.00,CLR,,0.00,WeatherDisplay:10.37,2013-04-30 10:41:00,
2013-04-30 06:46:00,45.0,37.2,30.29,SSW,201,0.0,0.0,74,0.00,CLR,,0.00,WeatherDisplay:10.37,2013-04-30 10:46:00,
2013-04-30 06:51:00,45.5,37.0,30.30,SSW,201,0.0,0.0,72,0.00,CLR,,0.00,WeatherDisplay:10.37,2013-04-30 10:51:00,
2013-04-30 06:56:00,45.9,37.0,30.30,SSW,201,0.0,0.0,71,0.00,CLR,,0.00,WeatherDisplay:10.37,2013-04-30 10:56:00,
2013-04-30 07:01:00,46.3,36.7,30.30,SSW,203,0.0,0.0,69,0.00,CLR,,0.00,WeatherDisplay:10.37,2013-04-30 11:01:00,
2013-04-30 07:06:00,46.7,36.7,30.30,SSW,203,0.0,0.0,68,0.00,CLR,,0.00,WeatherDisplay:10.37,2013-04-30 11:06:00,
2013-04-30 07:11:00,47.1,37.1,30.31,SSW,203,0.0,0.0,68,0.00,CLR,,0.00,WeatherDisplay:10.37,2013-04-30 11:11:00,
2013-04-30 07:16:00,47.5,37.1,30.31,SSW,203,0.0,0.0,67,0.00,CLR,,0.00,WeatherDisplay:10.37,2013-04-30 11:16:00,
2013-04-30 07:21:00,47.9,37.1,30.31,SSW,203,0.0,0.0,66,0.00,CLR,,0.00,WeatherDisplay:10.37,2013-04-30 11:21:00,
2013-04-30 07:26:00,48.2,37.0,30.31,SSW,203,0.0,0.0,65,0.00,CLR,,0.00,WeatherDisplay:10.37,2013-04-30 11:26:00,
2013-04-30 07:31:00,48.6,36.6,30.31,SSW,203,0.0,1.2,63,0.00,CLR,,0.00,WeatherDisplay:10.37,2013-04-30 11:31:00,
2013-04-30 07:36:00,48.8,36.8,30.31,SSW,203,0.4,1.2,63,0.00,CLR,,0.00,WeatherDisplay:10.37,2013-04-30 11:36:00,
2013-04-30 07:41:00,49.2,35.9,30.31,SSW,203,0.0,0.0,60,0.00,CLR,,0.00,WeatherDisplay:10.37,2013-04-30 11:41:00,
2013-04-30 07:46:00,49.6,35.8,30.31,SSW,203,0.0,1.2,59,0.00,CLR,,0.00,WeatherDisplay:10.37,2013-04-30 11:46:00,
2013-04-30 07:51:00,50.2,35.5,30.31,SSW,203,0.6,1.2,57,0.00,CLR,,0.00,WeatherDisplay:10.37,2013-04-30 11:51:00,
2013-04-30 07:56:00,50.8,36.1,30.31,SSW,203,0.7,2.3,57,0.00,CLR,,0.00,WeatherDisplay:10.37,2013-04-30 11:56:00,
2013-04-30 08:01:00,51.4,36.2,30.31,SW,236,0.2,1.2,56,0.00,CLR,,0.00,WeatherDisplay:10.37,2013-04-30 12:01:00,
2013-04-30 08:06:00,52.1,36.9,30.32,SW,235,0.7,2.3,56,0.00,CLR,,0.00,WeatherDisplay:10.37,2013-04-30 12:06:00,
2013-04-30 08:11:00,53.2,36.5,30.32,South,169,0.8,2.3,53,0.00,CLR,,0.00,WeatherDisplay:10.37,2013-04-30 12:11:00,
2013-04-30 08:16:00,54.1,35.9,30.32,South,191,0.3,1.2,50,0.00,CLR,,0.00,WeatherDisplay:10.37,2013-04-30 12:16:00,
2013-04-30 08:21:00,55.0,35.7,30.32,South,173,1.0,3.5,48,0.00,CLR,,0.00,WeatherDisplay:10.37,2013-04-30 12:21:00,
2013-04-30 08:26:00,55.7,35.2,30.32,SSE,156,1.7,2.3,46,0.00,CLR,,0.00,WeatherDisplay:10.37,2013-04-30 12:26:00,
2013-04-30 08:31:00,56.2,30.9,30.32,West,261,1.7,4.0,38,0.00,CLR,,0.00,WeatherDisplay:10.37,2013-04-30 12:31:00,
2013-04-30 08:36:00,56.2,29.6,30.32,SSW,205,1.7,3.5,36,0.00,CLR,,0.00,WeatherDisplay:10.37,2013-04-30 12:36:00,
2013-04-30 08:41:00,56.6,28.5,30.32,South,188,1.5,3.5,34,0.00,CLR,,0.00,WeatherDisplay:10.37,2013-04-30 12:41:00,
2013-04-30 08:46:00,56.9,26.5,30.32,SE,145,1.6,3.5,31,0.00,CLR,,0.00,WeatherDisplay:10.37,2013-04-30 12:46:00,
2013-04-30 08:51:00,57.4,29.2,30.32,West,261,1.1,3.5,34,0.00,CLR,,0.00,WeatherDisplay:10.37,2013-04-30 12:51:00,
2013-04-30 08:56:00,57.8,28.9,30.32,WSW,238,2.2,3.5,33,0.00,CLR,,0.00,WeatherDisplay:10.37,2013-04-30 12:56:00,
2013-04-30 09:01:00,58.0,29.0,30.32,SW,225,0.1,2.3,33,0.00,CLR,,0.00,WeatherDisplay:10.37,2013-04-30 13:01:00,
2013-04-30 09:06:00,58.5,28.7,30.32,ESE,109,0.7,2.3,32,0.00,CLR,,0.00,WeatherDisplay:10.37,2013-04-30 13:06:00,
2013-04-30 09:11:00,58.9,27.5,30.32,SSE,159,0.5,1.2,30,0.00,CLR,,0.00,WeatherDisplay:10.37,2013-04-30 13:11:00,
2013-04-30 09:16:00,59.1,27.7,30.32,SW,227,0.0,2.3,30,0.00,CLR,,0.00,WeatherDisplay:10.37,2013-04-30 13:16:00,
2013-04-30 09:22:00,59.2,27.7,30.32,WSW,246,0.9,3.0,30,0.00,CLR,,0.00,WeatherDisplay:10.37,2013-04-30 13:22:00,
2013-04-30 09:27:00,59.6,25.5,30.32,SSW,213,0.5,2.3,27,0.00,CLR,,0.00,WeatherDisplay:10.37,2013-04-30 13:27:00,
2013-04-30 09:32:00,59.8,24.8,30.32,West,269,3.4,5.8,26,0.00,CLR,,0.00,WeatherDisplay:10.37,2013-04-30 13:32:00,
2013-04-30 09:37:00,59.8,24.8,30.32,WNW,293,1.2,3.5,26,0.00,CLR,,0.00,WeatherDisplay:10.37,2013-04-30 13:37:00,
2013-04-30 09:42:00,59.8,24.8,30.32,NW,316,2.4,4.6,26,0.00,CLR,,0.00,WeatherDisplay:10.37,2013-04-30 13:42:00,
2013-04-30 09:47:00,59.9,24.9,30.32,WNW,294,2.6,3.5,26,0.00,CLR,,0.00,WeatherDisplay:10.37,2013-04-30 13:47:00,
2013-04-30 09:52:00,59.8,25.7,30.32,SW,227,1.8,2.3,27,0.00,CLR,,0.00,WeatherDisplay:10.37,2013-04-30 13:52:00,
2013-04-30 09:57:00,60.3,25.2,30.32,SW,219,1.0,3.5,26,0.00,CLR,,0.00,WeatherDisplay:10.37,2013-04-30 13:57:00,
2013-04-30 10:02:00,60.5,24.5,30.32,SSW,209,1.4,3.5,25,0.00,CLR,,0.00,WeatherDisplay:10.37,2013-04-30 14:02:00,
2013-04-30 10:07:00,60.9,23.8,30.32,WSW,248,3.2,4.6,24,0.00,CLR,,0.00,WeatherDisplay:10.37,2013-04-30 14:07:00,
2013-04-30 10:12:00,61.3,23.1,30.32,SW,223,0.7,2.3,23,0.00,CLR,,0.00,WeatherDisplay:10.37,2013-04-30 14:12:00,
2013-04-30 10:17:00,61.9,20.3,30.32,South,176,2.5,3.5,20,0.00,CLR,,0.00,WeatherDisplay:10.37,2013-04-30 14:17:00,
2013-04-30 10:22:00,62.2,20.6,30.32,SE,136,0.2,3.5,20,0.00,CLR,,0.00,WeatherDisplay:10.37,2013-04-30 14:22:00,
2013-04-30 10:27:00,62.5,22.0,30.32,South,169,2.9,3.5,21,0.00,CLR,,0.00,WeatherDisplay:10.37,2013-04-30 14:27:00,
2013-04-30 10:32:00,63.0,21.2,30.32,SSE,156,2.9,4.6,20,0.00,CLR,,0.00,WeatherDisplay:10.37,2013-04-30 14:32:00,
2013-04-30 10:37:00,62.9,20.0,30.32,ESE,119,1.5,4.6,19,0.00,CLR,,0.00,WeatherDisplay:10.37,2013-04-30 14:37:00,
2013-04-30 10:42:00,63.4,19.1,30.32,South,172,3.9,4.6,18,0.00,CLR,,0.00,WeatherDisplay:10.37,2013-04-30 14:42:00,
2013-04-30 10:47:00,63.8,18.1,30.32,East,93,2.4,3.5,17,0.00,CLR,,0.00,WeatherDisplay:10.37,2013-04-30 14:47:00,
2013-04-30 10:52:00,63.8,18.1,30.32,SSE,155,2.1,3.5,17,0.00,CLR,,0.00,WeatherDisplay:10.37,2013-04-30 14:52:00,
2013-04-30 10:57:00,63.9,19.5,30.32,SE,131,2.6,8.1,18,0.00,CLR,,0.00,WeatherDisplay:10.37,2013-04-30 14:57:00,
2013-04-30 11:02:00,63.9,20.8,30.32,SSW,202,2.9,5.0,19,0.00,CLR,,0.00,WeatherDisplay:10.37,2013-04-30 15:02:00,
2013-04-30 11:07:00,63.9,20.8,30.32,SW,228,4.1,6.9,19,0.00,CLR,,0.00,WeatherDisplay:10.37,2013-04-30 15:07:00,
2013-04-30 11:12:00,64.0,19.6,30.31,SW,219,0.6,3.5,18,0.00,CLR,,0.00,WeatherDisplay:10.37,2013-04-30 15:12:00,
2013-04-30 11:17:00,64.5,22.5,30.31,SW,229,3.7,8.1,20,0.00,CLR,,0.00,WeatherDisplay:10.37,2013-04-30 15:17:00,
2013-04-30 11:22:00,65.0,24.1,30.31,SE,135,3.0,3.5,21,0.00,CLR,,0.00,WeatherDisplay:10.37,2013-04-30 15:22:00,
2013-04-30 11:27:00,65.2,23.1,30.31,South,180,1.4,3.5,20,0.00,CLR,,0.00,WeatherDisplay:10.37,2013-04-30 15:27:00,
2013-04-30 11:32:00,65.5,22.1,30.31,East,85,0.9,8.1,19,0.00,CLR,,0.00,WeatherDisplay:10.37,2013-04-30 15:32:00,
2013-04-30 11:37:00,65.1,20.5,30.31,South,191,1.9,5.0,18,0.00,CLR,,0.00,WeatherDisplay:10.37,2013-04-30 15:37:00,
2013-04-30 11:42:00,65.2,21.9,30.31,SW,218,1.4,8.1,19,0.00,CLR,,0.00,WeatherDisplay:10.37,2013-04-30 15:42:00,
2013-04-30 11:47:00,65.2,23.1,30.31,East,92,4.5,6.9,20,0.00,CLR,,0.00,WeatherDisplay:10.37,2013-04-30 15:47:00,
2013-04-30 11:52:00,65.7,23.5,30.31,SSW,211,2.0,4.6,20,0.00,CLR,,0.00,WeatherDisplay:10.37,2013-04-30 15:52:00,
2013-04-30 11:57:00,66.0,22.5,30.31,WSW,255,1.7,6.9,19,0.00,CLR,,0.00,WeatherDisplay:10.37,2013-04-30 15:57:00,
2013-04-30 12:02:00,66.0,22.5,30.30,SSW,209,4.3,8.1,19,0.00,CLR,,0.00,WeatherDisplay:10.37,2013-04-30 16:02:00,
2013-04-30 12:07:00,65.9,22.4,30.30,SE,142,4.3,6.9,19,0.00,CLR,,0.00,WeatherDisplay:10.37,2013-04-30 16:07:00,
2013-04-30 12:12:00,66.3,22.8,30.30,SSW,192,2.1,5.8,19,0.00,CLR,,0.00,WeatherDisplay:10.37,2013-04-30 16:12:00,
2013-04-30 12:17:00,66.4,22.8,30.30,SE,143,2.7,6.9,19,0.00,CLR,,0.00,WeatherDisplay:10.37,2013-04-30 16:17:00,
2013-04-30 12:22:00,66.0,22.5,30.30,SSW,200,3.4,8.1,19,0.00,CLR,,0.00,WeatherDisplay:10.37,2013-04-30 16:22:00,
2013-04-30 12:27:00,66.2,25.1,30.30,ENE,67,3.9,8.1,21,0.00,CLR,,0.00,WeatherDisplay:10.37,2013-04-30 16:27:00,
2013-04-30 12:32:00,66.4,27.4,30.30,SSW,196,4.0,8.1,23,0.00,CLR,,0.00,WeatherDisplay:10.37,2013-04-30 16:32:00,
2013-04-30 12:37:00,66.5,24.2,30.30,SSE,156,5.1,10.4,20,0.00,CLR,,0.00,WeatherDisplay:10.37,2013-04-30 16:37:00,
2013-04-30 12:42:00,66.5,24.2,30.29,South,174,2.7,4.6,20,0.00,CLR,,0.00,WeatherDisplay:10.37,2013-04-30 16:42:00,
2013-04-30 12:47:00,66.7,24.3,30.30,SE,133,3.5,5.8,20,0.00,CLR,,0.00,WeatherDisplay:10.37,2013-04-30 16:47:00,
2013-04-30 12:52:00,67.1,25.8,30.29,NNW,331,1.8,3.5,21,0.00,CLR,,0.00,WeatherDisplay:10.37,2013-04-30 16:52:00,
2013-04-30 12:57:00,68.0,24.2,30.29,SE,127,1.8,3.5,19,0.00,CLR,,0.00,WeatherDisplay:10.37,2013-04-30 16:57:00,
2013-04-30 13:02:00,68.3,23.1,30.29,ESE,114,3.5,4.6,18,0.00,CLR,,0.00,WeatherDisplay:10.37,2013-04-30 17:02:00,
2013-04-30 13:07:00,68.1,23.0,30.29,SSE,166,3.9,5.8,18,0.00,CLR,,0.00,WeatherDisplay:10.37,2013-04-30 17:07:00,
2013-04-30 13:12:00,67.7,22.6,30.29,East,101,3.2,5.8,18,0.00,CLR,,0.00,WeatherDisplay:10.37,2013-04-30 17:12:00,
2013-04-30 13:17:00,67.7,21.3,30.29,SW,228,4.4,8.0,17,0.00,CLR,,0.00,WeatherDisplay:10.37,2013-04-30 17:17:00,
2013-04-30 13:22:00,68.0,21.5,30.29,NE,46,2.4,5.8,17,0.00,CLR,,0.00,WeatherDisplay:10.37,2013-04-30 17:22:00,
2013-04-30 13:27:00,68.3,21.8,30.29,SE,136,2.2,4.6,17,0.00,CLR,,0.00,WeatherDisplay:10.37,2013-04-30 17:27:00,
2013-04-30 13:32:00,68.5,23.3,30.29,SSE,159,3.7,6.9,18,0.00,CLR,,0.00,WeatherDisplay:10.37,2013-04-30 17:32:00,
2013-04-30 13:37:00,68.4,24.5,30.29,SSE,163,2.3,5.8,19,0.00,CLR,,0.00,WeatherDisplay:10.37,2013-04-30 17:37:00,
2013-04-30 13:42:00,68.0,22.9,30.29,ENE,76,2.6,5.0,18,0.00,CLR,,0.00,WeatherDisplay:10.37,2013-04-30 17:42:00,
2013-04-30 13:47:00,68.1,23.0,30.29,East,84,5.5,6.9,18,0.00,CLR,,0.00,WeatherDisplay:10.37,2013-04-30 17:47:00,
2013-04-30 13:52:00,67.7,25.1,30.29,SE,144,3.6,8.1,20,0.00,CLR,,0.00,WeatherDisplay:10.37,2013-04-30 17:52:00,
2013-04-30 13:57:00,68.1,24.2,30.29,South,183,7.1,10.4,19,0.00,CLR,,0.00,WeatherDisplay:10.37,2013-04-30 17:57:00,
2013-04-30 14:02:00,68.1,25.5,30.29,East,95,5.9,9.0,20,0.00,CLR,,0.00,WeatherDisplay:10.37,2013-04-30 18:02:00,
2013-04-30 14:07:00,68.2,24.3,30.29,SSE,148,4.2,7.0,19,0.00,CLR,,0.00,WeatherDisplay:10.37,2013-04-30 18:07:00,
2013-04-30 14:12:00,68.1,23.0,30.29,South,171,1.8,3.5,18,0.00,CLR,,0.00,WeatherDisplay:10.37,2013-04-30 18:12:00,
2013-04-30 14:17:00,68.0,25.4,30.29,SSE,161,7.5,11.5,20,0.00,CLR,,0.00,WeatherDisplay:10.37,2013-04-30 18:17:00,
2013-04-30 14:22:00,68.1,26.7,30.29,ESE,111,5.4,9.2,21,0.00,CLR,,0.00,WeatherDisplay:10.37,2013-04-30 18:22:00,
2013-04-30 14:27:00,68.3,24.4,30.29,SE,145,4.9,10.0,19,0.00,CLR,,0.00,WeatherDisplay:10.37,2013-04-30 18:27:00,
2013-04-30 14:32:00,68.1,25.5,30.29,NE,49,1.9,4.6,20,0.00,CLR,,0.00,WeatherDisplay:10.37,2013-04-30 18:32:00,
2013-04-30 14:37:00,68.6,25.9,30.29,South,190,1.9,5.8,20,0.00,CLR,,0.00,WeatherDisplay:10.37,2013-04-30 18:37:00,
2013-04-30 14:42:00,68.4,24.5,30.29,ESE,121,4.1,6.9,19,0.00,CLR,,0.00,WeatherDisplay:10.37,2013-04-30 18:42:00,
2013-04-30 14:47:00,68.5,25.8,30.29,NNE,15,2.5,4.6,20,0.00,CLR,,0.00,WeatherDisplay:10.37,2013-04-30 18:47:00,
2013-04-30 14:52:00,68.7,26.0,30.28,ESE,116,4.7,9.2,20,0.00,CLR,,0.00,WeatherDisplay:10.37,2013-04-30 18:52:00,
2013-04-30 14:57:00,68.6,24.7,30.28,ENE,64,2.8,5.0,19,0.00,CLR,,0.00,WeatherDisplay:10.37,2013-04-30 18:57:00,
2013-04-30 15:02:00,68.3,25.6,30.28,ESE,119,6.3,10.4,20,0.00,CLR,,0.00,WeatherDisplay:10.37,2013-04-30 19:02:00,
2013-04-30 15:07:00,68.0,24.2,30.28,NE,56,1.9,3.5,19,0.00,CLR,,0.00,WeatherDisplay:10.37,2013-04-30 19:07:00,
2013-04-30 15:12:00,68.2,24.3,30.28,South,169,4.5,6.9,19,0.00,CLR,,0.00,WeatherDisplay:10.37,2013-04-30 19:12:00,
2013-04-30 15:17:00,68.0,24.2,30.28,ESE,112,4.4,6.9,19,0.00,CLR,,0.00,WeatherDisplay:10.37,2013-04-30 19:17:00,
2013-04-30 15:22:00,67.7,23.9,30.28,SSW,199,4.6,6.9,19,0.00,CLR,,0.00,WeatherDisplay:10.37,2013-04-30 19:22:00,
2013-04-30 15:27:00,67.7,25.1,30.28,ESE,119,6.3,10.4,20,0.00,CLR,,0.00,WeatherDisplay:10.37,2013-04-30 19:27:00,
2013-04-30 15:32:00,67.8,24.0,30.28,ESE,122,0.1,1.2,19,0.00,CLR,,0.00,WeatherDisplay:10.37,2013-04-30 19:32:00,
2013-04-30 15:37:00,68.5,24.6,30.28,SSW,209,5.7,10.4,19,0.00,CLR,,0.00,WeatherDisplay:10.37,2013-04-30 19:37:00,
2013-04-30 15:42:00,68.2,24.3,30.28,East,80,4.7,8.1,19,0.00,CLR,,0.00,WeatherDisplay:10.37,2013-04-30 19:42:00,
2013-04-30 15:47:00,67.9,24.1,30.28,East,88,2.5,6.0,19,0.00,CLR,,0.00,WeatherDisplay:10.37,2013-04-30 19:47:00,
2013-04-30 15:52:00,67.9,24.1,30.28,East,90,3.4,8.1,19,0.00,CLR,,0.00,WeatherDisplay:10.37,2013-04-30 19:52:00,
2013-04-30 15:57:00,67.9,24.1,30.28,SE,126,2.2,4.6,19,0.00,CLR,,0.00,WeatherDisplay:10.37,2013-04-30 19:57:00,
2013-04-30 16:02:00,68.4,23.2,30.28,SE,144,4.7,6.9,18,0.00,CLR,,0.00,WeatherDisplay:10.37,2013-04-30 20:02:00,
2013-04-30 16:07:00,68.3,23.1,30.28,East,88,4.4,5.8,18,0.00,CLR,,0.00,WeatherDisplay:10.37,2013-04-30 20:07:00,
2013-04-30 16:12:00,67.7,22.6,30.28,East,101,4.3,6.9,18,0.00,CLR,,0.00,WeatherDisplay:10.37,2013-04-30 20:12:00,
2013-04-30 16:17:00,67.5,22.5,30.29,ESE,119,2.1,4.0,18,0.00,CLR,,0.00,WeatherDisplay:10.37,2013-04-30 20:17:00,
2013-04-30 16:22:00,67.5,22.5,30.28,East,90,5.6,10.4,18,0.00,CLR,,0.00,WeatherDisplay:10.37,2013-04-30 20:22:00,
2013-04-30 16:27:00,67.4,22.4,30.28,ENE,77,2.9,6.9,18,0.00,CLR,,0.00,WeatherDisplay:10.37,2013-04-30 20:27:00,
2013-04-30 16:32:00,67.4,22.4,30.28,South,180,5.8,8.1,18,0.00,CLR,,0.00,WeatherDisplay:10.37,2013-04-30 20:32:00,
2013-04-30 16:37:00,67.2,22.2,30.29,East,85,3.6,7.0,18,0.00,CLR,,0.00,WeatherDisplay:10.37,2013-04-30 20:37:00,
2013-04-30 16:42:00,67.2,22.2,30.29,ENE,69,2.0,4.0,18,0.00,CLR,,0.00,WeatherDisplay:10.37,2013-04-30 20:42:00,
2013-04-30 16:47:00,67.1,22.1,30.29,ENE,69,2.7,4.6,18,0.00,CLR,,0.00,WeatherDisplay:10.37,2013-04-30 20:47:00,
2013-04-30 16:52:00,67.0,22.1,30.29,SE,141,4.0,5.8,18,0.00,CLR,,0.00,WeatherDisplay:10.37,2013-04-30 20:52:00,
2013-04-30 16:57:00,66.7,21.8,30.29,NE,42,5.4,9.2,18,0.00,CLR,,0.00,WeatherDisplay:10.37,2013-04-30 20:57:00,
2013-04-30 17:02:00,66.0,19.9,30.29,ESE,120,5.2,10.4,17,0.00,CLR,,0.00,WeatherDisplay:10.37,2013-04-30 21:02:00,
2013-04-30 17:07:00,66.0,21.2,30.29,SE,131,1.9,3.5,18,0.00,CLR,,0.00,WeatherDisplay:10.37,2013-04-30 21:07:00,
2013-04-30 17:12:00,66.0,21.2,30.29,SE,125,3.1,6.9,18,0.00,CLR,,0.00,WeatherDisplay:10.37,2013-04-30 21:12:00,
2013-04-30 17:17:00,66.1,21.3,30.29,ENE,78,4.3,6.9,18,0.00,CLR,,0.00,WeatherDisplay:10.37,2013-04-30 21:17:00,
2013-04-30 17:22:00,65.9,21.2,30.29,SSE,156,4.1,9.2,18,0.00,CLR,,0.00,WeatherDisplay:10.37,2013-04-30 21:22:00,
2013-04-30 17:27:00,66.0,21.2,30.29,SE,144,3.1,4.6,18,0.00,CLR,,0.00,WeatherDisplay:10.37,2013-04-30 21:27:00,
2013-04-30 17:32:00,66.1,21.3,30.30,South,179,2.9,6.0,18,0.00,CLR,,0.00,WeatherDisplay:10.37,2013-04-30 21:32:00,
2013-04-30 17:37:00,66.1,20.0,30.30,East,96,5.5,9.2,17,0.00,CLR,,0.00,WeatherDisplay:10.37,2013-04-30 21:37:00,
2013-04-30 17:42:00,65.6,20.9,30.30,East,85,2.5,5.8,18,0.00,CLR,,0.00,WeatherDisplay:10.37,2013-04-30 21:42:00,
2013-04-30 17:47:00,65.3,20.7,30.30,SSE,157,4.3,7.0,18,0.00,CLR,,0.00,WeatherDisplay:10.37,2013-04-30 21:47:00,
2013-04-30 17:52:00,65.1,20.5,30.30,SSE,151,3.3,4.6,18,0.00,CLR,,0.00,WeatherDisplay:10.37,2013-04-30 21:52:00,
2013-04-30 17:57:00,65.1,21.8,30.30,South,174,1.9,3.5,19,0.00,CLR,,0.00,WeatherDisplay:10.37,2013-04-30 21:57:00,
2013-04-30 18:02:00,65.1,21.8,30.30,SSE,163,3.4,4.6,19,0.00,CLR,,0.00,WeatherDisplay:10.37,2013-04-30 22:02:00,
2013-04-30 18:07:00,65.2,21.9,30.30,East,91,2.1,3.5,19,0.00,CLR,,0.00,WeatherDisplay:10.37,2013-04-30 22:07:00,
2013-04-30 18:12:00,64.8,22.7,30.30,East,79,3.1,6.9,20,0.00,CLR,,0.00,WeatherDisplay:10.37,2013-04-30 22:12:00,
2013-04-30 18:17:00,64.5,22.5,30.30,SSE,149,5.4,9.0,20,0.00,CLR,,0.00,WeatherDisplay:10.37,2013-04-30 22:17:00,
2013-04-30 18:22:00,64.3,22.3,30.30,South,171,3.2,4.6,20,0.00,CLR,,0.00,WeatherDisplay:10.37,2013-04-30 22:22:00,
2013-04-30 18:27:00,64.1,23.3,30.30,SE,140,3.4,5.8,21,0.00,CLR,,0.00,WeatherDisplay:10.37,2013-04-30 22:27:00,
2013-04-30 18:32:00,63.6,22.9,30.30,ESE,119,4.4,8.1,21,0.00,CLR,,0.00,WeatherDisplay:10.37,2013-04-30 22:32:00,
2013-04-30 18:37:00,63.1,22.5,30.30,South,176,3.8,9.2,21,0.00,CLR,,0.00,WeatherDisplay:10.37,2013-04-30 22:37:00,
2013-04-30 18:42:00,62.7,22.2,30.30,SSE,157,4.6,6.0,21,0.00,CLR,,0.00,WeatherDisplay:10.37,2013-04-30 22:42:00,
2013-04-30 18:47:00,62.4,21.9,30.31,South,172,3.9,6.9,21,0.00,CLR,,0.00,WeatherDisplay:10.37,2013-04-30 22:47:00,
2013-04-30 18:52:00,61.9,20.3,30.31,SE,134,1.7,3.5,20,0.00,CLR,,0.00,WeatherDisplay:10.37,2013-04-30 22:52:00,
2013-04-30 18:57:00,61.4,21.1,30.31,SSE,148,2.9,5.8,21,0.00,CLR,,0.00,WeatherDisplay:10.37,2013-04-30 22:57:00,
2013-04-30 19:02:00,61.0,20.7,30.31,SSE,162,2.5,11.0,21,0.00,CLR,,0.00,WeatherDisplay:10.37,2013-04-30 23:02:00,
2013-04-30 19:07:00,60.7,20.5,30.31,SE,146,1.2,3.5,21,0.00,CLR,,0.00,WeatherDisplay:10.37,2013-04-30 23:07:00,
2013-04-30 19:12:00,60.5,20.3,30.31,SW,231,0.6,1.2,21,0.00,CLR,,0.00,WeatherDisplay:10.37,2013-04-30 23:12:00,
2013-04-30 19:17:00,60.2,24.2,30.31,NNW,346,0.4,1.2,25,0.00,CLR,,0.00,WeatherDisplay:10.37,2013-04-30 23:17:00,
2013-04-30 19:22:00,59.9,23.0,30.31,NNW,346,0.4,1.2,24,0.00,CLR,,0.00,WeatherDisplay:10.37,2013-04-30 23:22:00,
2013-04-30 19:27:00,59.5,22.6,30.32,ENE,59,0.1,0.0,24,0.00,CLR,,0.00,WeatherDisplay:10.37,2013-04-30 23:27:00,
2013-04-30 19:32:00,59.1,22.3,30.32,ENE,59,0.4,1.2,24,0.00,CLR,,0.00,WeatherDisplay:10.37,2013-04-30 23:32:00,
2013-04-30 19:37:00,58.8,22.0,30.32,SSE,158,0.0,0.0,24,0.00,CLR,,0.00,WeatherDisplay:10.37,2013-04-30 23:37:00,
2013-04-30 19:42:00,58.5,22.8,30.32,SSE,158,0.0,0.0,25,0.00,CLR,,0.00,WeatherDisplay:10.37,2013-04-30 23:42:00,
2013-04-30 19:47:00,58.2,23.4,30.32,SE,140,1.0,2.3,26,0.00,CLR,,0.00,WeatherDisplay:10.37,2013-04-30 23:47:00,
2013-04-30 19:52:00,57.9,24.1,30.32,SE,140,0.0,1.2,27,0.00,CLR,,0.00,WeatherDisplay:10.37,2013-04-30 23:52:00,
2013-04-30 19:57:00,57.6,23.8,30.32,SE,139,0.0,1.2,27,0.00,CLR,,0.00,WeatherDisplay:10.37,2013-04-30 23:57:00,
2013-04-30 20:02:00,57.3,24.4,30.32,SE,125,2.1,3.5,28,0.00,CLR,,0.00,WeatherDisplay:10.37,2013-05-01 00:02:00,
2013-04-30 20:07:00,57.0,25.0,30.32,SE,126,1.1,2.0,29,0.00,CLR,,0.00,WeatherDisplay:10.37,2013-05-01 00:07:00,
2013-04-30 20:12:00,56.7,25.6,30.32,SE,126,0.0,1.2,30,0.00,CLR,,0.00,WeatherDisplay:10.37,2013-05-01 00:12:00,
2013-04-30 20:17:00,56.4,26.1,30.33,SE,126,0.0,0.0,31,0.00,FEW,,0.00,WeatherDisplay:10.37,2013-05-01 00:17:00,
2013-04-30 20:22:00,56.0,25.8,30.33,SE,126,0.1,0.0,31,0.00,FEW,,0.00,WeatherDisplay:10.37,2013-05-01 00:22:00,
2013-04-30 20:27:00,55.7,26.3,30.33,SE,126,0.1,2.3,32,0.00,FEW,,0.00,WeatherDisplay:10.37,2013-05-01 00:27:00,
2013-04-30 20:32:00,55.5,26.8,30.33,SE,126,0.0,0.0,33,0.00,FEW,,0.00,WeatherDisplay:10.37,2013-05-01 00:32:00,
2013-04-30 20:37:00,55.2,26.6,30.33,SE,126,0.0,0.0,33,0.00,FEW,,0.00,WeatherDisplay:10.37,2013-05-01 00:37:00,
2013-04-30 20:42:00,55.0,27.1,30.33,SE,126,0.0,0.0,34,0.00,FEW,,0.00,WeatherDisplay:10.37,2013-05-01 00:42:00,
2013-04-30 20:47:00,54.6,27.5,30.33,SE,126,0.4,2.3,35,0.00,FEW,,0.00,WeatherDisplay:10.37,2013-05-01 00:47:00,
2013-04-30 20:52:00,54.4,28.0,30.33,SE,126,0.4,2.0,36,0.00,FEW,,0.00,WeatherDisplay:10.37,2013-05-01 00:52:00,
2013-04-30 20:57:00,54.2,28.5,30.33,SE,126,0.0,0.0,37,0.00,FEW,,0.00,WeatherDisplay:10.37,2013-05-01 00:57:00,
2013-04-30 21:02:00,53.9,28.8,30.33,ESE,120,0.7,1.2,38,0.00,FEW,,0.00,WeatherDisplay:10.37,2013-05-01 01:02:00,
2013-04-30 21:07:00,53.6,28.6,30.33,ESE,120,0.4,1.2,38,0.00,FEW,,0.00,WeatherDisplay:10.37,2013-05-01 01:07:00,
2013-04-30 21:12:00,53.4,29.0,30.33,ESE,120,0.1,1.2,39,0.00,FEW,,0.00,WeatherDisplay:10.37,2013-05-01 01:12:00,
2013-04-30 21:17:00,53.2,29.5,30.34,ESE,120,0.1,1.2,40,0.00,CLR,,0.00,WeatherDisplay:10.37,2013-05-01 01:17:00,
2013-04-30 21:22:00,53.0,29.9,30.34,ESE,120,0.6,2.3,41,0.00,CLR,,0.00,WeatherDisplay:10.37,2013-05-01 01:22:00,
2013-04-30 21:27:00,52.9,30.4,30.34,ESE,120,0.0,0.0,42,0.00,CLR,,0.00,WeatherDisplay:10.37,2013-05-01 01:27:00,
2013-04-30 21:32:00,52.7,30.8,30.34,ESE,120,0.1,1.2,43,0.00,CLR,,0.00,WeatherDisplay:10.37,2013-05-01 01:32:00,
2013-04-30 21:37:00,52.6,31.3,30.34,ESE,120,0.0,0.0,44,0.00,CLR,,0.00,WeatherDisplay:10.37,2013-05-01 01:37:00,
2013-04-30 21:42:00,52.4,32.7,30.34,ESE,120,0.0,1.2,47,0.00,CLR,,0.00,WeatherDisplay:10.37,2013-05-01 01:42:00,
2013-04-30 21:47:00,52.1,33.0,30.34,ESE,120,0.0,0.0,48,0.00,CLR,,0.00,WeatherDisplay:10.37,2013-05-01 01:47:00,
2013-04-30 21:52:00,51.7,31.6,30.34,ESE,120,0.0,0.0,46,0.00,CLR,,0.00,WeatherDisplay:10.37,2013-05-01 01:52:00,
2013-04-30 21:57:00,51.2,31.6,30.35,ESE,120,0.0,0.0,47,0.00,CLR,,0.00,WeatherDisplay:10.37,2013-05-01 01:57:00,
2013-04-30 22:02:00,50.9,31.9,30.35,ESE,120,0.0,0.0,48,0.00,CLR,,0.00,WeatherDisplay:10.37,2013-05-01 02:02:00,
2013-04-30 22:07:00,50.5,33.0,30.35,ESE,120,0.0,0.0,51,0.00,CLR,,0.00,WeatherDisplay:10.37,2013-05-01 02:07:00,
2013-04-30 22:12:00,50.3,33.3,30.34,ESE,120,0.0,0.0,52,0.00,CLR,,0.00,WeatherDisplay:10.37,2013-05-01 02:12:00,
2013-04-30 22:17:00,50.1,33.1,30.34,ESE,120,0.0,0.0,52,0.00,CLR,,0.00,WeatherDisplay:10.37,2013-05-01 02:17:00,
2013-04-30 22:22:00,49.9,33.4,30.34,ESE,120,0.0,0.0,53,0.00,CLR,,0.00,WeatherDisplay:10.37,2013-05-01 02:22:00,
2013-04-30 22:27:00,49.6,33.2,30.34,ESE,120,0.0,0.0,53,0.00,CLR,,0.00,WeatherDisplay:10.37,2013-05-01 02:27:00,
2013-04-30 22:32:00,49.4,33.9,30.34,ESE,120,0.0,0.0,55,0.00,CLR,,0.00,WeatherDisplay:10.37,2013-05-01 02:32:00,
2013-04-30 22:37:00,49.1,33.6,30.34,ESE,120,0.0,0.0,55,0.00,CLR,,0.00,WeatherDisplay:10.37,2013-05-01 02:37:00,
2013-04-30 22:42:00,48.8,34.2,30.34,ESE,120,0.0,0.0,57,0.00,CLR,,0.00,WeatherDisplay:10.37,2013-05-01 02:42:00,
2013-04-30 22:47:00,48.6,33.1,30.35,ESE,120,0.0,0.0,55,0.00,CLR,,0.00,WeatherDisplay:10.37,2013-05-01 02:47:00,
2013-04-30 22:52:00,48.2,33.2,30.35,ESE,120,0.0,0.0,56,0.00,CLR,,0.00,WeatherDisplay:10.37,2013-05-01 02:52:00,
2013-04-30 22:57:00,47.9,33.4,30.35,ESE,120,0.0,0.0,57,0.00,CLR,,0.00,WeatherDisplay:10.37,2013-05-01 02:57:00,
2013-04-30 23:02:00,47.6,33.1,30.35,ESE,120,0.0,0.0,57,0.00,CLR,,0.00,WeatherDisplay:10.37,2013-05-01 03:02:00,
2013-04-30 23:07:00,47.3,33.3,30.35,ESE,120,0.0,0.0,58,0.00,CLR,,0.00,WeatherDisplay:10.37,2013-05-01 03:07:00,
2013-04-30 23:12:00,47.1,33.9,30.35,ESE,120,0.0,0.0,60,0.00,CLR,,0.00,WeatherDisplay:10.37,2013-05-01 03:12:00,
2013-04-30 23:17:00,46.8,34.5,30.35,ESE,120,0.0,0.0,62,0.00,CLR,,0.00,WeatherDisplay:10.37,2013-05-01 03:17:00,
2013-04-30 23:22:00,46.7,34.8,30.36,ESE,120,0.0,0.0,63,0.00,CLR,,0.00,WeatherDisplay:10.37,2013-05-01 03:22:00,
2013-04-30 23:27:00,46.5,34.2,30.35,ESE,120,0.0,0.0,62,0.00,CLR,,0.00,WeatherDisplay:10.37,2013-05-01 03:27:00,
2013-04-30 23:32:00,46.2,33.5,30.35,ESE,120,0.0,0.0,61,0.00,CLR,,0.00,WeatherDisplay:10.37,2013-05-01 03:32:00,
2013-04-30 23:37:00,45.8,33.5,30.36,ESE,120,0.0,0.0,62,0.00,CLR,,0.00,WeatherDisplay:10.37,2013-05-01 03:37:00,
2013-04-30 23:42:00,45.4,33.1,30.36,ESE,120,0.0,0.0,62,0.00,CLR,,0.00,WeatherDisplay:10.37,2013-05-01 03:42:00,
2013-04-30 23:47:00,45.1,33.2,30.36,ESE,120,0.0,0.0,63,0.00,CLR,,0.00,WeatherDisplay:10.37,2013-05-01 03:47:00,
2013-04-30 23:52:00,44.7,32.9,30.36,ESE,120,0.0,0.0,63,0.00,CLR,,0.00,WeatherDisplay:10.37,2013-05-01 03:52:00,
2013-04-30 23:57:00,44.5,33.1,30.36,ESE,120,0.0,0.0,64,0.00,CLR,,0.00,WeatherDisplay:10.37,2013-05-01 03:57:00,